Location: Breungeshain
(50.5000°N, 9.2000°E)
Time: 20:43:31
(UTC+00:00)

ISS - Visible Passes

Search period start: 26 May 2017 00:00
Search period end: 05 June 2017 00:00
Orbit: 402 x 408 km, 51.6° (Epoch: 27 May)

Date Brightness Start Highest point End Pass type
(mag) Time Alt. Az. Time Alt. Az. Time Alt. Az.
26 May -3.3 01:27:01 10° W 01:30:05 36° SSW 01:33:08 10° SE visible
26 May -3.9 21:21:45 10° WSW 21:25:03 85° SSE 21:28:22 10° ENE visible
26 May -3.6 22:58:21 10° W 23:01:39 71° N 23:04:57 10° E visible
27 May -3.8 00:34:54 10° WNW 00:38:09 54° SSW 00:41:22 10° SE visible
27 May -2.0 02:12:26 10° WSW 02:14:05 13° SW 02:15:43 10° SSW visible
27 May -3.8 20:29:46 10° WSW 20:33:02 63° SSE 20:36:19 10° ENE visible
27 May -3.6 22:06:17 10° W 22:09:34 70° N 22:12:52 10° E visible
27 May -4.0 23:42:51 10° WNW 23:46:08 76° SSW 23:47:26 34° ESE visible
28 May -1.4 01:19:44 10° W 01:19:58 11° W 01:19:58 11° W visible
28 May -3.6 21:14:10 10° W 21:17:29 75° N 21:20:47 10° E visible
28 May -3.9 22:50:47 10° WNW 22:54:06 85° NNE 22:56:01 23° E visible
29 May -2.0 00:27:25 10° W 00:28:37 18° W 00:28:37 18° W visible
29 May -3.8 20:22:05 10° WSW 20:25:23 88° NNW 20:28:42 10° ENE visible
29 May -3.6 21:58:41 10° W 22:02:00 74° N 22:05:08 11° E visible
29 May -3.2 23:35:15 10° W 23:37:45 39° WSW 23:37:45 39° WSW visible
30 May -3.5 21:06:35 10° W 21:09:53 70° N 21:13:11 10° E visible
30 May -3.9 22:43:08 10° WNW 22:46:26 67° SSW 22:47:03 51° SE visible
31 May -3.5 20:14:27 10° W 20:17:45 72° N 20:21:03 10° E visible
31 May -3.9 21:51:02 10° WNW 21:54:21 88° SSW 21:56:27 21° ESE visible
31 May -1.9 23:27:45 10° W 23:29:05 19° WSW 23:29:05 19° WSW visible
01 Jun -3.7 20:58:55 10° WNW 21:02:14 77° N 21:05:32 10° E visible
01 Jun -3.3 22:35:30 10° W 22:38:33 40° SSW 22:38:33 40° SSW visible
02 Jun -3.5 20:06:46 10° W 20:10:05 70° N 20:13:23 10° E visible
02 Jun -3.8 21:43:19 10° WNW 21:46:35 59° SSW 21:48:02 29° SE visible
02 Jun -1.2 23:20:37 10° WSW 23:20:40 10° WSW 23:20:40 10° WSW visible
03 Jun -3.9 20:51:11 10° WNW 20:54:30 81° SSW 20:57:34 11° ESE visible
03 Jun -2.3 22:27:59 10° W 22:30:12 22° SW 22:30:12 22° SW visible
04 Jun -3.0 21:35:39 10° W 21:38:41 35° SSW 21:39:45 27° S visible
